FW0069 Weather Reports


Display with metric or nautical units.
time (UTC)temp
F
wind
direction
speed
MPH
gust
MPH
rain 1hr
in
rain 24hr
in
rain mn
in
humidity
%
barometer
mb
20260902080056 80 169 9.0 11.0 0.00 0.00 0.00 12 1013.7
20260902075556 80 185 10.0 11.0 0.00 0.00 0.00 12 1013.5
20260902075056 80 190 7.0 8.0 0.00 0.00 0.00 12 1013.5
20260902074056 81 171 2.0 5.0 0.00 0.00 0.00 11 1013.7
20260902073556 81 149 3.0 8.0 0.00 0.00 0.00 11 1013.6
20260902073056 81 188 1.0 10.0 0.00 0.00 0.00 11 1013.7
20260902071556 81 180 5.0 10.0 0.00 0.00 0.00 10 1013.4
20260902071056 82 178 4.0 10.0 0.00 0.00 0.00 10 1013.4
20260902070556 82 191 3.0 12.0 0.00 0.00 0.00 10 1013.4
20260902070055 82 191 4.0 12.0 0.00 0.00 0.00 10 1013.2
20260902065056 82 180 5.0 10.0 0.00 0.00 0.00 10 1012.9
20260902064556 82 200 7.0 10.0 0.00 0.00 0.00 10 1012.9
20260902064056 82 202 8.0 10.0 0.00 0.00 0.00 10 1012.9
20260902063556 82 186 7.0 10.0 0.00 0.00 0.00 10 1012.9
20260902063056 82 180 10.0 10.0 0.00 0.00 0.00 10 1012.8
20260902062556 82 174 10.0 10.0 0.00 0.00 0.00 11 1012.7
20260902062056 82 194 7.0 10.0 0.00 0.00 0.00 11 1012.7
20260902061556 81 175 2.0 7.0 0.00 0.00 0.00 11 1012.7
20260902061056 81 188 4.0 6.0 0.00 0.00 0.00 12 1012.8
20260902060556 81 360 4.0 6.0 0.00 0.00 0.00 12 1012.7
20260902060055 81 179 4.0 6.0 0.00 0.00 0.00 12 1012.7
20260902055556 82 171 3.0 5.0 0.00 0.00 0.00 12 1012.6
20260902055056 82 172 3.0 6.0 0.00 0.00 0.00 12 1012.5
20260902054556 82 176 3.0 6.0 0.00 0.00 0.00 12 1012.5
20260902054056 82 182 3.0 6.0 0.00 0.00 0.00 12 1012.6
20260902053556 82 184 2.0 6.0 0.00 0.00 0.00 12 1012.7
20260902053056 83 189 1.0 3.0 0.00 0.00 0.00 13 1012.9
20260902052556 83 189 0.0 2.0 0.00 0.00 0.00 13 1012.8
20260902052056 83 189 0.0 3.0 0.00 0.00 0.00 13 1012.7
20260902051555 83 188 2.0 3.0 0.00 0.00 0.00 13 1012.7
20260902050555 84 188 1.0 4.0 0.00 0.00 0.00 12 1012.6
20260902050056 84 188 0.0 5.0 0.00 0.00 0.00 12 1012.6
20260902045555 84 188 2.0 5.0 0.00 0.00 0.00 12 1012.4
20260902045056 84 181 3.0 4.0 0.00 0.00 0.00 12 1012.3
20260902044556 85 181 1.0 6.0 0.00 0.00 0.00 12 1012.4
20260902044055 85 194 3.0 6.0 0.00 0.00 0.00 12 1012.4
20260902043555 85 360 3.0 5.0 0.00 0.00 0.00 12 1012.3
20260902043055 85 360 3.0 6.0 0.00 0.00 0.00 12 1012.2
20260902042555 85 360 3.0 6.0 0.00 0.00 0.00 12 1012.1
20260902042055 86 360 2.0 6.0 0.00 0.00 0.00 12 1012.2
20260902041555 86 360 0.0 4.0 0.00 0.00 0.00 12 1012.3
20260902041056 86 360 1.0 7.0 0.00 0.00 0.00 12 1012.2
20260902040555 86 360 2.0 7.0 0.00 0.00 0.00 12 1012.0
20260902040055 86 187 4.0 10.0 0.00 0.00 0.00 12 1011.9
20260902035555 87 200 6.0 11.0 0.00 0.00 0.00 12 1011.8
20260902035055 87 180 4.0 11.0 0.00 0.00 0.00 12 1011.8
20260902034555 87 191 2.0 5.0 0.00 0.00 0.00 12 1011.6
20260902034055 87 202 2.0 6.0 0.00 0.00 0.00 12 1011.6
20260902033556 87 207 2.0 7.0 0.00 0.00 0.00 12 1011.5
20260902032556 87 180 3.0 6.0 0.00 0.00 0.00 12 1011.2
20260902032056 88 180 4.0 11.0 0.00 0.00 0.00 12 1011.2
20260902031555 88 192 4.0 11.0 0.00 0.00 0.00 12 1011.2
20260902031056 88 360 5.0 9.0 0.00 0.00 0.00 13 1011.3
20260902030555 88 360 3.0 11.0 0.00 0.00 0.00 12 1011.2
20260902030055 88 360 5.0 11.0 0.00 0.00 0.00 12 1011.0
20260902025555 88 360 4.0 9.0 0.00 0.00 0.00 12 1011.0
20260902025055 88 360 3.0 10.0 0.00 0.00 0.00 12 1010.9
20260902024555 88 360 6.0 10.0 0.00 0.00 0.00 12 1010.9
20260902024056 88 360 7.0 12.0 0.00 0.00 0.00 12 1011.0
20260902023555 89 360 4.0 12.0 0.00 0.00 0.00 12 1011.0
20260902023056 89 360 5.0 10.0 0.00 0.00 0.00 12 1011.0
20260902022555 89 360 3.0 10.0 0.00 0.00 0.00 12 1011.0
20260902022055 89 360 2.0 8.0 0.00 0.00 0.00 11 1011.1
20260902021555 89 360 4.0 8.0 0.00 0.00 0.00 11 1011.1
20260902021055 90 360 2.0 12.0 0.00 0.00 0.00 11 1011.0
20260902020556 90 360 6.0 12.0 0.00 0.00 0.00 11 1011.0
20260902015555 90 360 4.0 10.0 0.00 0.00 0.00 11 1010.9
20260902015055 91 360 4.0 7.0 0.00 0.00 0.00 11 1010.9
20260902014555 91 201 4.0 7.0 0.00 0.00 0.00 11 1011.1
20260902014056 91 194 4.0 10.0 0.00 0.00 0.00 11 1011.1
20260902013555 91 203 4.0 11.0 0.00 0.00 0.00 11 1011.1
20260902013055 91 184 7.0 11.0 0.00 0.00 0.00 11 1011.1
20260902012555 91 195 4.0 9.0 0.00 0.00 0.00 11 1011.3
20260902012055 91 196 7.0 9.0 0.00 0.00 0.00 11 1011.2
20260902011055 92 215 3.0 16.0 0.00 0.00 0.00 10 1011.2
20260902010556 92 174 3.0 16.0 0.00 0.00 0.00 10 1011.3
20260902010055 92 198 7.0 16.0 0.00 0.00 0.00 10 1011.3
20260902005055 92 192 4.0 18.0 0.00 0.00 0.00 10 1011.5
20260902004555 93 188 18.0 18.0 0.00 0.00 0.00 9 1011.8
20260902004055 93 199 7.0 14.0 0.00 0.00 0.00 9 1011.8
20260902003556 93 161 13.0 20.0 0.00 0.00 0.00 9 1011.7
20260902002556 94 178 20.0 20.0 0.00 0.00 0.00 9 1011.6
20260902002055 93 128 5.0 11.0 0.00 0.00 0.00 9 1011.6
20260902001555 94 183 3.0 15.0 0.00 0.00 0.00 9 1011.7
20260902001055 93 158 4.0 20.0 0.00 0.00 0.00 9 1011.6
20260902000555 94 174 6.0 20.0 0.00 0.00 0.00 8 1011.6
20260902000055 94 178 6.0 16.0 0.00 0.00 0.00 9 1011.7
20260901235055 94 187 7.0 18.0 0.00 0.00 0.00 8 1011.9
20260901234555 94 179 11.0 18.0 0.00 0.00 0.00 8 1011.9
20260901234055 95 232 7.0 17.0 0.00 0.00 0.00 8 1011.8
20260901233555 95 184 9.0 15.0 0.00 0.00 0.00 8 1011.9
20260901233055 94 215 7.0 20.0 0.00 0.00 0.00 8 1011.8
20260901232555 94 198 8.0 22.0 0.00 0.00 0.00 8 1012.0
20260901232055 94 200 7.0 22.0 0.00 0.00 0.00 8 1012.0
20260901231555 94 173 8.0 20.0 0.00 0.00 0.00 7 1011.9
20260901231055 95 205 13.0 24.0 0.00 0.00 0.00 8 1011.9
20260901230555 95 199 9.0 24.0 0.00 0.00 0.00 7 1011.9
20260901230055 96 178 7.0 15.0 0.00 0.00 0.00 8 1012.1
20260901225555 95 205 5.0 21.0 0.00 0.00 0.00 8 1012.1
20260901225055 95 196 7.0 21.0 0.00 0.00 0.00 8 1012.0
20260901224555 95 183 10.0 17.0 0.00 0.00 0.00 8 1012.1
20260901224055 96 218 14.0 17.0 0.00 0.00 0.00 8 1012.3
20260901223555 96 211 7.0 17.0 0.00 0.00 0.00 8 1012.2
20260901223055 96 196 9.0 20.0 0.00 0.00 0.00 8 1012.3
20260901222055 95 111 12.0 18.0 0.00 0.00 0.00 9 1012.3
20260901220555 96 192 6.0 17.0 0.00 0.00 0.00 9 1012.4
20260901220055 96 203 6.0 16.0 0.00 0.00 0.00 9 1012.6
20260901215555 95 196 7.0 19.0 0.00 0.00 0.00 9 1012.5
20260901214555 95 217 9.0 20.0 0.00 0.00 0.00 9 1012.6
20260901214055 96 196 6.0 15.0 0.00 0.00 0.00 9 1012.7
20260901213555 96 180 9.0 14.0 0.00 0.00 0.00 9 1012.7
20260901212555 96 175 4.0 12.0 0.00 0.00 0.00 9 1012.9
20260901212055 95 160 7.0 19.0 0.00 0.00 0.00 9 1013.0
20260901211555 96 169 5.0 19.0 0.00 0.00 0.00 9 1013.0
20260901211055 95 198 7.0 12.0 0.00 0.00 0.00 9 1013.2
20260901210055 95 200 6.0 17.0 0.00 0.00 0.00 10 1013.4
20260901205555 94 176 5.0 17.0 0.00 0.00 0.00 10 1013.4
20260901205055 94 178 4.0 17.0 0.00 0.00 0.00 11 1013.5
20260901204555 94 171 10.0 14.0 0.00 0.00 0.00 11 1013.6
20260901203055 94 149 4.0 12.0 0.00 0.00 0.00 10 1013.9
20260901202555 94 180 6.0 14.0 0.00 0.00 0.00 10 1013.8
20260901201055 94 199 7.0 11.0 0.00 0.00 0.00 12 1014.0
20260901200555 93 186 4.0 14.0 0.00 0.00 0.00 11 1014.1
20260901200055 93 136 10.0 15.0 0.00 0.00 0.00 11 1014.1
20260901195555 93 360 2.0 15.0 0.00 0.00 0.00 12 1014.3
20260901194555 93 177 4.0 17.0 0.00 0.00 0.00 12 1014.5
20260901194055 93 164 3.0 18.0 0.00 0.00 0.00 12 1014.5
20260901193555 92 196 4.0 18.0 0.00 0.00 0.00 12 1014.5
20260901193055 93 211 8.0 18.0 0.00 0.00 0.00 13 1014.6
20260901192055 92 163 3.0 14.0 0.00 0.00 0.00 14 1014.7
20260901191054 92 75 3.0 12.0 0.00 0.00 0.00 18 1014.9
20260901190554 92 154 2.0 12.0 0.00 0.00 0.00 17 1014.9
20260901190054 91 128 5.0 12.0 0.00 0.00 0.00 18 1014.9
20260901185555 91 184 4.0 15.0 0.00 0.00 0.00 18 1015.0
20260901185055 91 166 3.0 15.0 0.00 0.00 0.00 17 1014.9
20260901184555 91 136 7.0 13.0 0.00 0.00 0.00 16 1015.2
20260901183554 91 113 7.0 10.0 0.00 0.00 0.00 17 1015.1
20260901183055 90 234 2.0 10.0 0.00 0.00 0.00 16 1015.2
20260901182554 90 180 3.0 14.0 0.00 0.00 0.00 16 1015.2
20260901182054 91 153 5.0 14.0 0.00 0.00 0.00 17 1015.2
20260901181554 89 130 7.0 12.0 0.00 0.00 0.00 21 1015.1
20260901180555 90 174 4.0 14.0 0.00 0.00 0.00 21 1015.3
20260901180055 89 143 5.0 14.0 0.00 0.00 0.00 20 1015.3
20260901175555 89 140 3.0 14.0 0.00 0.00 0.00 21 1015.6
20260901175054 89 104 8.0 11.0 0.00 0.00 0.00 21 1015.6
20260901173555 88 134 6.0 15.0 0.00 0.00 0.00 20 1015.4
20260901173054 88 123 3.0 13.0 0.00 0.00 0.00 18 1015.4
20260901172555 88 99 8.0 14.0 0.00 0.00 0.00 17 1015.5
20260901170554 86 67 7.0 12.0 0.00 0.00 0.00 15 1015.3
20260901170055 86 360 2.0 10.0 0.00 0.00 0.00 16 1015.3
20260901165555 86 360 8.0 10.0 0.00 0.00 0.00 15 1015.4
20260901164555 85 360 4.0 10.0 0.00 0.00 0.00 17 1015.2
20260901163555 84 360 6.0 10.0 0.00 0.00 0.00 17 1015.2
20260901163054 84 360 6.0 10.0 0.00 0.00 0.00 19 1015.1
20260901162555 84 360 7.0 8.0 0.00 0.00 0.00 23 1015.3
20260901162055 84 360 4.0 8.0 0.00 0.00 0.00 22 1015.4
20260901161554 83 360 5.0 9.0 0.00 0.00 0.00 21 1015.2
20260901161054 83 360 5.0 10.0 0.00 0.00 0.00 21 1015.2
20260901160555 83 360 3.0 11.0 0.00 0.00 0.00 21 1015.2
20260901160055 83 360 6.0 11.0 0.00 0.00 0.00 21 1015.2
20260901155555 83 360 8.0 11.0 0.00 0.00 0.00 19 1015.3
20260901155054 83 360 7.0 11.0 0.00 0.00 0.00 18 1015.3
20260901154554 83 360 5.0 12.0 0.00 0.00 0.00 16 1015.2
20260901154054 83 360 8.0 12.0 0.00 0.00 0.00 19 1015.2
20260901153554 82 360 8.0 8.0 0.00 0.00 0.00 19 1015.1
20260901153054 82 360 4.0 7.0 0.00 0.00 0.00 22 1015.1
20260901152054 82 360 6.0 9.0 0.00 0.00 0.00 20 1015.1
20260901151555 82 360 3.0 8.0 0.00 0.00 0.00 21 1015.1
20260901151054 81 360 2.0 8.0 0.00 0.00 0.00 21 1015.1
20260901150054 81 360 4.0 7.0 0.00 0.00 0.00 24 1015.0
20260901145554 80 360 6.0 8.0 0.00 0.00 0.00 26 1015.1
20260901145054 80 360 3.0 9.0 0.00 0.00 0.00 26 1014.9
20260901144554 80 66 4.0 9.0 0.00 0.00 0.00 25 1015.0
20260901144055 80 87 5.0 8.0 0.00 0.00 0.00 25 1014.9
20260901143555 79 72 4.0 8.0 0.00 0.00 0.00 25 1014.9
20260901142554 78 66 5.0 8.0 0.00 0.00 0.00 28 1014.5
20260901142054 78 113 4.0 7.0 0.00 0.00 0.00 30 1014.5
20260901141555 77 77 3.0 7.0 0.00 0.00 0.00 33 1014.5
20260901141054 76 84 2.0 5.0 0.00 0.00 0.00 36 1014.4
20260901140555 76 69 2.0 5.0 0.00 0.00 0.00 37 1014.3
20260901140054 75 71 2.0 4.0 0.00 0.00 0.00 38 1014.3
20260901135054 75 70 1.0 4.0 0.00 0.00 0.00 40 1014.4
20260901134555 74 70 1.0 5.0 0.00 0.00 0.00 41 1014.3
20260901133554 74 74 1.0 7.0 0.00 0.00 0.00 38 1014.2
20260901133054 74 92 1.0 5.0 0.00 0.00 0.00 32 1014.3
20260901132555 75 92 2.0 5.0 0.00 0.00 0.00 29 1014.2
20260901132054 75 92 1.0 5.0 0.00 0.00 0.00 28 1014.2
20260901131554 75 92 3.0 3.0 0.00 0.00 0.00 28 1014.1
20260901131054 75 92 2.0 5.0 0.00 0.00 0.00 29 1014.1
20260901130554 75 92 1.0 6.0 0.00 0.00 0.00 29 1014.1
20260901130055 75 91 2.0 6.0 0.00 0.00 0.00 30 1014.1
20260901125554 75 90 2.0 7.0 0.00 0.00 0.00 31 1014.0
20260901124554 75 78 2.0 7.0 0.00 0.00 0.00 29 1014.0
20260901124054 75 91 2.0 6.0 0.00 0.00 0.00 28 1014.1
20260901123554 76 82 3.0 5.0 0.00 0.00 0.00 28 1014.2
20260901123054 76 81 3.0 6.0 0.00 0.00 0.00 29 1014.1
20260901122554 76 76 2.0 8.0 0.00 0.00 0.00 29 1014.1
20260901122054 76 77 3.0 8.0 0.00 0.00 0.00 29 1014.1
20260901121554 76 84 2.0 5.0 0.00 0.00 0.00 29 1014.1
20260901121054 76 77 2.0 8.0 0.00 0.00 0.00 28 1014.1
20260901120554 76 85 3.0 8.0 0.00 0.00 0.00 29 1014.1
20260901120055 76 74 3.0 8.0 0.00 0.00 0.00 29 1014.0
20260901115554 77 67 2.0 8.0 0.00 0.00 0.00 29 1014.1
20260901115054 77 82 7.0 7.0 0.00 0.00 0.00 29 1014.1
20260901114555 77 75 3.0 7.0 0.00 0.00 0.00 29 1014.1
20260901114055 77 74 4.0 8.0 0.00 0.00 0.00 30 1014.1
20260901113554 77 70 7.0 8.0 0.00 0.00 0.00 32 1014.2
20260901113054 77 75 4.0 7.0 0.00 0.00 0.00 33 1014.2
20260901112554 77 82 6.0 7.0 0.00 0.00 0.00 33 1014.2
20260901112054 77 78 3.0 7.0 0.00 0.00 0.00 34 1014.3
20260901111554 77 76 3.0 8.0 0.00 0.00 0.00 35 1014.3
20260901110054 78 79 3.0 8.0 0.00 0.00 0.00 33 1014.3
20260901104555 78 80 6.0 8.0 0.00 0.00 0.00 32 1014.2
20260901103554 78 81 3.0 8.0 0.00 0.00 0.00 31 1014.3
20260901103054 78 78 3.0 7.0 0.00 0.00 0.00 30 1014.2
20260901102054 78 67 5.0 9.0 0.00 0.00 0.00 29 1014.2
20260901101554 78 81 6.0 8.0 0.00 0.00 0.00 28 1014.2
20260901100554 78 66 4.0 7.0 0.00 0.00 0.00 26 1014.1
20260901095554 79 64 4.0 7.0 0.00 0.00 0.00 27 1014.1
20260901095054 79 65 2.0 7.0 0.00 0.00 0.00 28 1014.1
20260901094554 79 62 3.0 8.0 0.00 0.00 0.00 29 1014.1
20260901094054 79 63 7.0 8.0 0.00 0.00 0.00 29 1014.1
20260901093554 80 57 3.0 8.0 0.00 0.00 0.00 30 1014.2
20260901093054 80 76 4.0 8.0 0.00 0.00 0.00 30 1014.2
20260901092054 80 78 8.0 10.0 0.00 0.00 0.00 33 1014.1
20260901091554 80 86 5.0 10.0 0.00 0.00 0.00 33 1014.1
20260901091054 80 100 6.0 9.0 0.00 0.00 0.00 33 1014.0
20260901085554 81 90 5.0 9.0 0.00 0.00 0.00 35 1013.8
20260901085054 81 85 5.0 8.0 0.00 0.00 0.00 35 1014.0
20260901084554 81 78 4.0 10.0 0.00 0.00 0.00 35 1014.0
20260901083054 82 68 8.0 12.0 0.00 0.00 0.00 36 1014.3
20260901082554 82 73 4.0 12.0 0.00 0.00 0.00 36 1014.1
20260901082054 82 98 3.0 9.0 0.00 0.00 0.00 36 1014.1
20260901081554 83 71 3.0 10.0 0.00 0.00 0.00 35 1014.2
20260901081054 83 75 5.0 10.0 0.00 0.00 0.00 34 1014.2
20260901080554 83 74 7.0 10.0 0.00 0.00 0.00 29 1014.1